[[{"header":{"parameterUnit":"m.s-1","parameterCategory":2,"la1":30.2991,"la2":30.254,"lo1":-89.0895,"lo2":-89.0444,"dy":0.0017,"dx":0.0017,"nx":28,"ny":28,"refTime":"2025-02-08T09:00:00:Z","depth":"0","parameterNumber":2,"parameterNumberName":"U-component_of_CURRENTS"},"data":[0,0,0,0,0,0,0,0,0,0,0,0,0,0,0,0,0,0,0,0,0,0,0,0,0,0,0,0,0,0,0,0,0,0,0,0,0,0,0,0,0,0,0,0,0,0,0,0,0,0,0,0,0,0,0,0,0,0,0.3042,0.3042,0,0.2992,0.2991,0.299,0.2949,0.2949,0.2949,0.2949,0.2896,0.2894,0.2893,0,0,0,0,0,0,0,0,0,0,0,0,0,0.3093,0.3092,0.3042,0.3042,0.3041,0.2992,0.2991,0.299,0.2949,0.2949,0.2949,0.2949,0.2896,0.2895,0.2893,0,0,0,0,0,0,0,0,0,0,0,0,0,0.3056,0.3091,0.3042,0.3018,0.3015,0.2992,0.2991,0.299,0.2949,0.2949,0.2949,0.2949,0.2897,0.2895,0.2893,0.2883,0,0,0.2887,0.2886,0,0,0,0,0,0,0,0,0.3058,0.3053,0.3022,0.302,0.3017,0.298,0.299,0.2955,0.2949,0.297,0.2949,0.2949,0.2926,0.2922,0.2907,0.288,0.2878,0.2886,0.2885,0.2884,0.2884,0,0,0,0,0,0,0,0.3061,0.3055,0.3018,0.3022,0.3019,0.3007,0.3001,0.2982,0.2947,0.2969,0.2966,0.2967,0.2924,0.2909,0.2906,0.2877,0.2886,0.2885,0.2883,0.2883,0.2876,0.2877,0,0,0,0,0,0,0.3075,0.3058,0.302,0.3017,0.3042,0.3006,0.3,0.2989,0.2947,0.2941,0.2967,0.2965,0.2913,0.2908,0.2904,0.2919,0.2884,0.2882,0.2881,0.2875,0.2876,0.2877,0,0,0,0,0,0,0.3076,0.3071,0.3022,0.304,0.3034,0.3006,0.2994,0.2988,0.2977,0.2946,0.294,0.2963,0.2912,0.2907,0.2897,0.2915,0.2882,0.288,0.2874,0.2875,0.2877,0.293,0,0,0,0,0,0,0.3077,0.3072,0.3068,0.3041,0.3033,0.3015,0.2994,0.2987,0.2979,0.2976,0.2941,0.2936,0.2912,0.29,0.2895,0.2912,0.2878,0.2872,0.2874,0.2876,0.2927,0.2933,0.2938,0,0,0,0,0,0.3079,0.3073,0.3067,0.3063,0.3028,0.3015,0.301,0.2988,0.298,0.2976,0.2957,0.2937,0.2909,0.2899,0.2893,0.291,0.2871,0.2874,0.2876,0.2924,0.2932,0.2938,0,0,0,0,0,0,0.3085,0.3068,0.3061,0.3048,0.3038,0.301,0.3005,0.2994,0.2974,0.2972,0.2943,0.2936,0.2939,0.2917,0.2907,0.2915,0.289,0.2891,0.2929,0.2936,0.2941,0.2952,0.2876,0,0,0,0,0,0.3089,0.3081,0.3066,0.3055,0.3054,0.3032,0.3024,0.3012,0.2994,0.2984,0.2962,0.2946,0.2942,0.2933,0.2922,0.2918,0.2918,0.2929,0.2934,0.2939,0.2945,0.2975,0.2984,0.2885,0.2885,0.2885,0,0,0.3086,0.3078,0.3072,0.3058,0.3046,0.3042,0.3026,0.3018,0.3016,0.2983,0.2972,0.2965,0.2948,0.295,0.2949,0.2933,0.2967,0.2942,0.2947,0.2949,0.2979,0.2988,0.2997,0.2886,0.2886,0.2886,0,0,0.3081,0.3074,0.3068,0.3066,0.3061,0.3052,0.3055,0.3035,0.3028,0.3021,0.3008,0.3015,0.2988,0.2989,0.2985,0.3016,0.3,0.3013,0.3043,0.3073,0.3082,0.3089,0.3097,0.3105,0.3011,0.3011,0.3011,0,0.308,0.3067,0.3065,0.3065,0.3065,0.3061,0.3058,0.3054,0.3034,0.3042,0.3026,0.3028,0.3011,0.3033,0.3043,0.303,0.3036,0.3017,0.3081,0.3089,0.3096,0.3102,0.311,0.3014,0.3014,0.3013,0.3013,0,0.3068,0.3066,0.3065,0.3064,0.3068,0.3066,0.3069,0.3076,0.3073,0.3074,0.3096,0.3081,0.3086,0.3086,0.3069,0.3113,0.3099,0.309,0.3064,0.3109,0.3112,0.3119,0.3018,0.3017,0.3016,0.3015,0,0,0.304,0.3053,0.3052,0.3054,0.3068,0.3064,0.3087,0.3103,0.3121,0.3122,0.3145,0.3152,0.3159,0.3156,0.3146,0.3166,0.3215,0.3148,0.3148,0.3157,0.327,0.3215,0.3217,0.3221,0.3222,0.3224,0.3251,0,0.3027,0.3028,0.3041,0.3044,0.3044,0.3068,0.3088,0.3111,0.313,0.3154,0.3176,0.3187,0.3182,0.3183,0.3213,0.3215,0.3238,0.3207,0.3225,0.3225,0.3172,0.3225,0.3083,0.3093,0.3258,0.3259,0.326,0,0.3,0.301,0.301,0.3036,0.3039,0.3045,0.3086,0.3106,0.3162,0.3182,0.3225,0.3233,0.3273,0.3251,0.3304,0.3287,0.3287,0.3286,0.3287,0.3222,0.3184,0.3076,0.3099,0.3004,0.3271,0.327,0.327,0,0.2962,0.2981,0.2982,0.2988,0.3022,0.3033,0.3057,0.3112,0.3141,0.3201,0.3229,0.3281,0.3302,0.3329,0.334,0.3324,0.3389,0.3364,0.3316,0.3311,0.3186,0.3168,0.312,0.3404,0.3404,0.3404,0.3404,0,0.2932,0.293,0.2962,0.2959,0.2972,0.3008,0.3036,0.3076,0.3141,0.3181,0.324,0.3273,0.3325,0.3364,0.3365,0.3371,0.3417,0.3334,0.3324,0.3199,0.3182,0.3089,0.3058,0.3405,0.3405,0.3405,0.3405,0,0.2881,0.2901,0.2903,0.2939,0.2948,0.2957,0.3015,0.304,0.3116,0.3171,0.3189,0.3282,0.3332,0.3373,0.3412,0.3396,0.3299,0.3389,0.323,0.3201,0.3043,0.302,0.2882,0.2801,0.3331,0.333,0.3329,0,0.2853,0.2848,0.2877,0.2876,0.2887,0.2914,0.2932,0.3013,0.3045,0.3166,0.3182,0.3263,0.3294,0.3349,0.333,0.3328,0.325,0.3197,0.314,0.3025,0.2994,0.2894,0.2828,0.2992,0.2988,0.2985,0.2983,0,0.2807,0.2816,0.2822,0.2823,0.283,0.2849,0.2883,0.2906,0.3006,0.3053,0.3117,0.3153,0.3216,0.3158,0.3175,0.3154,0.3027,0.3135,0.306,0.2766,0.2609,0.2527,0.2977,0.2957,0.296,0.2961,0.2963,0.2964,0.2772,0.2763,0.2768,0.2755,0.2764,0.2763,0.2745,0.2794,0.2829,0.2861,0.298,0.2972,0.2996,0.299,0.2967,0.2821,0.2836,0.2715,0.271,0.2629,0.2502,0.289,0.2835,0.2837,0.2839,0.284,0.2841,0,0.2713,0.2703,0.2697,0.2671,0.2634,0.2674,0.2685,0.2649,0.2633,0.2693,0.2717,0.2684,0.2625,0.263,0.2527,0.2411,0.2313,0.2336,0.2159,0.2128,0.2506,0.2444,0.2248,0.2248,0.2248,0.2248,0.2248,0.2249,0.2684,0.2645,0.263,0.254,0.2515,0.2441,0.2422,0.239,0.2398,0.2327,0.2278,0.2296,0.2342,0.2287,0.2139,0.2084,0.1934,0.183,0.1858,0.2125,0.2159,0.2192,0.2125,0.1865,0.1865,0.137,0.1366,0.1364]},{"header":{"parameterUnit":"m.s-1","parameterCategory":2,"la1":30.2991,"la2":30.254,"lo1":-89.0895,"lo2":-89.0444,"dy":0.0017,"dx":0.0017,"nx":28,"ny":28,"refTime":"2025-02-08T09:00:00:Z","depth":"0","parameterNumber":3,"parameterNumberName":"V-component_of_CURRENTS"},"data":[0,0,0,0,0,0,0,0,0,0,0,0,0,0,0,0,0,0,0,0,0,0,0,0,0,0,0,0,0,0,0,0,0,0,0,0,0,0,0,0,0,0,0,0,0,0,0,0,0,0,0,0,0,0,0,0,0,0,0.0187,0.0187,0,0.0181,0.0181,0.0181,0.0164,0.0164,0.0164,0.0164,0.0131,0.013,0.013,0,0,0,0,0,0,0,0,0,0,0,0,0,0.0159,0.016,0.0187,0.0187,0.0187,0.0181,0.0181,0.0181,0.0164,0.0164,0.0164,0.0164,0.0131,0.013,0.013,0,0,0,0,0,0,0,0,0,0,0,0,0,0.0162,0.016,0.0187,0.018,0.0179,0.0181,0.0181,0.0181,0.0164,0.0164,0.0164,0.0164,0.0132,0.0131,0.013,0.0129,0,0,0.0126,0.0126,0,0,0,0,0,0,0,0,0.0162,0.0163,0.0181,0.018,0.018,0.0175,0.0159,0.0163,0.0165,0.0168,0.0164,0.0163,0.0144,0.0142,0.014,0.0128,0.0126,0.0126,0.0126,0.0125,0.0125,0,0,0,0,0,0,0,0.0162,0.0163,0.0183,0.0181,0.018,0.0168,0.0168,0.0159,0.0156,0.0168,0.0167,0.0169,0.0144,0.0141,0.0139,0.0126,0.0126,0.0125,0.0125,0.0124,0.0114,0.0115,0,0,0,0,0,0,0.0168,0.0163,0.0183,0.0183,0.0172,0.0169,0.0169,0.0175,0.0157,0.0155,0.0169,0.0168,0.0143,0.014,0.0138,0.0151,0.0125,0.0124,0.0124,0.0114,0.0114,0.0115,0,0,0,0,0,0,0.0168,0.017,0.0184,0.0174,0.0175,0.017,0.0177,0.0175,0.0173,0.0159,0.0155,0.0169,0.0142,0.0139,0.0134,0.0149,0.0124,0.0123,0.0113,0.0114,0.0115,0.0168,0,0,0,0,0,0,0.0167,0.017,0.0174,0.0175,0.0176,0.0192,0.0177,0.0175,0.0175,0.0174,0.0157,0.0154,0.0142,0.0136,0.0133,0.0147,0.0122,0.0113,0.0114,0.0114,0.0166,0.0171,0.0174,0,0,0,0,0,0.0166,0.0178,0.0175,0.0177,0.0183,0.0193,0.0192,0.0186,0.0176,0.0181,0.0167,0.0154,0.0138,0.0136,0.0132,0.0146,0.0113,0.0114,0.0114,0.0164,0.017,0.0174,0,0,0,0,0,0,0.0168,0.0178,0.0174,0.0188,0.0192,0.0191,0.0196,0.0188,0.0182,0.0178,0.0159,0.0155,0.0156,0.0142,0.0139,0.0144,0.0123,0.0123,0.0162,0.0167,0.0171,0.0188,0.0121,0,0,0,0,0,0.0171,0.0182,0.0187,0.0198,0.0203,0.0198,0.0199,0.0196,0.0191,0.0188,0.0176,0.0163,0.0157,0.0154,0.0144,0.0148,0.0131,0.0154,0.0158,0.0162,0.0172,0.0163,0.0168,0.0117,0.0117,0.0117,0,0,0.0174,0.0181,0.0187,0.0199,0.0201,0.022,0.0198,0.0206,0.0219,0.0185,0.0195,0.0176,0.0159,0.0165,0.0164,0.0156,0.0164,0.0163,0.0166,0.0175,0.0165,0.017,0.0174,0.0118,0.0118,0.0118,0,0,0.0194,0.0194,0.0214,0.0222,0.0231,0.0233,0.0237,0.0238,0.0235,0.0239,0.0219,0.021,0.0199,0.0195,0.019,0.021,0.0184,0.0204,0.0244,0.0235,0.0239,0.0243,0.0218,0.0219,0.0209,0.021,0.021,0,0.0198,0.0226,0.022,0.0244,0.0258,0.0243,0.0271,0.0268,0.0265,0.0273,0.0249,0.024,0.0217,0.0234,0.0236,0.0221,0.0206,0.0228,0.0241,0.0245,0.0247,0.0221,0.0222,0.0212,0.0212,0.0212,0.0211,0,0.0239,0.0259,0.0273,0.0301,0.0313,0.0333,0.0335,0.034,0.033,0.0331,0.0336,0.0302,0.0299,0.0288,0.0266,0.0281,0.0259,0.0246,0.0232,0.0256,0.0226,0.0226,0.0216,0.0215,0.0214,0.0214,0,0,0.0259,0.0296,0.0301,0.0327,0.0346,0.0365,0.0384,0.0409,0.0437,0.0412,0.0442,0.041,0.0389,0.038,0.035,0.0338,0.033,0.0304,0.0302,0.0285,0.0301,0.0295,0.0294,0.0322,0.0322,0.0322,0.0268,0,0.0296,0.0354,0.036,0.0416,0.045,0.0445,0.0475,0.0489,0.0493,0.0514,0.0476,0.0485,0.0426,0.0423,0.0402,0.0358,0.0333,0.0345,0.0275,0.0273,0.027,0.0295,0.033,0.0287,0.0268,0.0268,0.0268,0,0.0341,0.0377,0.0437,0.049,0.0505,0.0531,0.0583,0.0608,0.0627,0.0627,0.0621,0.0589,0.0566,0.0506,0.0439,0.045,0.0378,0.0332,0.0328,0.0308,0.0268,0.026,0.0286,0.0202,0.0267,0.0267,0.0267,0,0.0374,0.0432,0.0485,0.0502,0.0556,0.058,0.0611,0.0645,0.0687,0.07,0.0729,0.0685,0.0676,0.0587,0.0477,0.0459,0.04,0.0362,0.0284,0.0281,0.029,0.0289,0.0235,0.0305,0.0305,0.0306,0.0306,0,0.0419,0.0461,0.0505,0.0535,0.061,0.0628,0.0708,0.0728,0.0777,0.0851,0.0791,0.0829,0.0697,0.0642,0.0518,0.0412,0.0427,0.0299,0.0276,0.0308,0.0309,0.0219,0.0167,0.0303,0.0304,0.0304,0.0305,0,0.0451,0.0476,0.0543,0.0604,0.0628,0.0684,0.0773,0.0836,0.087,0.0961,0.0967,0.0945,0.0881,0.0739,0.0604,0.0484,0.0319,0.0315,0.0353,0.0336,0.0182,0.0133,0.0044,-0.0002,0.0222,0.0222,0.0222,0,0.0474,0.0512,0.0593,0.0642,0.0671,0.0754,0.0819,0.0876,0.0951,0.1043,0.1094,0.1057,0.1058,0.0858,0.0644,0.0437,0.0323,0.031,0.0279,0.019,0.0117,0.0071,0.0036,0.03,0.03,0.03,0.0301,0,0.0522,0.0545,0.0599,0.0699,0.0771,0.0867,0.0962,0.1035,0.1122,0.1211,0.1309,0.1316,0.114,0.0972,0.0684,0.0523,0.0267,0.0309,0.0217,0.018,0.0128,0.0069,0.03,0.0303,0.0303,0.0303,0.0303,0.0303,0.0552,0.0599,0.0667,0.0763,0.0853,0.0969,0.1059,0.1175,0.1315,0.1465,0.1463,0.1521,0.1265,0.0896,0.0666,0.0297,0.0282,0.0191,0.0137,0.0097,0.0064,0.0296,0.0275,0.0275,0.0274,0.0274,0.0274,0,0.059,0.0643,0.0731,0.0844,0.0947,0.0988,0.1149,0.1256,0.1435,0.1578,0.1675,0.1595,0.1286,0.0924,0.0439,0.0185,0.007,0.0046,-0.0006,-0.0037,0.0176,0.0192,0.0155,0.0155,0.0155,0.0155,0.0155,0.0156,0.0611,0.0689,0.0734,0.0898,0.0984,0.113,0.1227,0.1399,0.1537,0.1726,0.1783,0.179,0.1532,0.0707,0.0158,0.0026,-0.0146,-0.0176,-0.0278,-0.0123,-0.0114,-0.0105,-0.0102,-0.02,-0.02,-0.0453,-0.0455,-0.0457]}],[{"header":{"parameterUnit":"m.s-1","parameterCategory":2,"la1":30.2991,"la2":30.254,"lo1":-89.0895,"lo2":-89.0444,"dy":0.0017,"dx":0.0017,"nx":28,"ny":28,"refTime":"2025-02-08T09:00:00:Z","depth":"2","parameterNumber":2,"parameterNumberName":"U-component_of_CURRENTS"},"data":[0,0,0,0,0,0,0,0,0,0,0,0,0,0,0,0,0,0,0,0,0,0,0,0,0,0,0,0,0,0,0,0,0,0,0,0,0,0,0,0,0,0,0,0,0,0,0,0,0,0,0,0,0,0,0,0,0,0,0.2197,0.2197,0,0.2194,0.2194,0.2193,0.2187,0.2187,0.2187,0.2187,0.2176,0.2175,0.2175,0,0,0,0,0,0,0,0,0,0,0,0,0,0.2211,0.221,0.2197,0.2197,0.2197,0.2194,0.2194,0.2193,0.2187,0.2187,0.2187,0.2187,0.2176,0.2175,0.2175,0,0,0,0,0,0,0,0,0,0,0,0,0,0.2204,0.221,0.2197,0.2195,0.2194,0.2194,0.2194,0.2193,0.2187,0.2187,0.2187,0.2187,0.2176,0.2175,0.2175,0.2171,0,0,0.2173,0.2173,0,0,0,0,0,0,0,0,0.2205,0.2203,0.2195,0.2195,0.2195,0.2192,0.2195,0.2186,0.2187,0.2187,0.2187,0.2187,0.2182,0.2181,0.2177,0.217,0.217,0.2173,0.2173,0.2173,0.2173,0,0,0,0,0,0,0,0.2205,0.2204,0.2194,0.2195,0.2195,0.2199,0.2198,0.2193,0.2183,0.2187,0.2187,0.219,0.2181,0.2178,0.2177,0.217,0.2173,0.2173,0.2173,0.2172,0.221,0.2211,0,0,0,0,0,0,0.2208,0.2204,0.2194,0.2194,0.2202,0.2199,0.2197,0.2191,0.2183,0.2182,0.219,0.219,0.2179,0.2178,0.2177,0.2212,0.2173,0.2172,0.2172,0.2209,0.221,0.2212,0,0,0,0,0,0,0.2208,0.2207,0.2194,0.2201,0.22,0.2199,0.2192,0.2191,0.22,0.2185,0.2184,0.2201,0.2179,0.2177,0.2188,0.221,0.2172,0.2172,0.2207,0.2209,0.2211,0.2257,0,0,0,0,0,0,0.2209,0.2207,0.2209,0.2201,0.2199,0.2202,0.2192,0.2191,0.2202,0.2201,0.2194,0.2192,0.2179,0.2189,0.2188,0.2209,0.2171,0.2206,0.2208,0.2211,0.2254,0.226,0.2265,0,0,0,0,0,0.2209,0.2209,0.2209,0.2208,0.22,0.2203,0.2203,0.2201,0.2202,0.2208,0.2208,0.2193,0.2204,0.2189,0.2188,0.2209,0.2205,0.2208,0.221,0.2251,0.2259,0.2265,0,0,0,0,0,0,0.2215,0.2208,0.2208,0.2205,0.221,0.2203,0.221,0.221,0.2214,0.2218,0.2204,0.2203,0.2223,0.2211,0.2196,0.2229,0.2204,0.2207,0.2236,0.2243,0.2249,0.2252,0.2171,0,0,0,0,0,0.2218,0.2216,0.2214,0.2215,0.2219,0.2218,0.2222,0.2222,0.2223,0.2225,0.2221,0.2223,0.2231,0.2233,0.2235,0.2248,0.225,0.2263,0.2269,0.2274,0.2278,0.2314,0.2324,0.2221,0.2221,0.2221,0,0,0.2219,0.2218,0.2216,0.2217,0.222,0.2227,0.222,0.2231,0.224,0.2224,0.2238,0.2243,0.2241,0.2259,0.2267,0.2252,0.2304,0.2278,0.2282,0.2283,0.2318,0.2328,0.2337,0.2223,0.2223,0.2223,0,0,0.2222,0.2223,0.2224,0.223,0.2241,0.2243,0.2251,0.2254,0.226,0.2275,0.2272,0.2292,0.2295,0.2302,0.2305,0.2346,0.2336,0.2349,0.2379,0.2414,0.2423,0.2431,0.2442,0.245,0.235,0.235,0.235,0,0.2227,0.2222,0.2227,0.2233,0.224,0.2253,0.226,0.2271,0.2279,0.2295,0.2288,0.2322,0.2317,0.235,0.2363,0.2359,0.2371,0.235,0.2422,0.243,0.2437,0.2446,0.2455,0.2353,0.2353,0.2352,0.2352,0,0.2225,0.2231,0.2235,0.2246,0.2257,0.2267,0.2283,0.2304,0.2318,0.2334,0.2374,0.2374,0.2397,0.2402,0.2392,0.2443,0.2433,0.2427,0.2402,0.245,0.2457,0.2465,0.2357,0.2356,0.2355,0.2354,0,0,0.221,0.2229,0.2232,0.2239,0.2264,0.227,0.2303,0.2335,0.2366,0.2389,0.2426,0.245,0.2465,0.247,0.2468,0.2493,0.2547,0.2483,0.2484,0.2491,0.2616,0.2554,0.2557,0.256,0.2561,0.2563,0.2599,0,0.2208,0.2216,0.223,0.2248,0.2253,0.2285,0.2314,0.2352,0.2388,0.243,0.2461,0.2494,0.2487,0.2501,0.2532,0.2547,0.2572,0.2537,0.2572,0.2572,0.251,0.2565,0.234,0.2349,0.2607,0.2608,0.2609,0,0.2193,0.2203,0.2213,0.2246,0.2254,0.2273,0.2328,0.2358,0.2433,0.2466,0.2521,0.2543,0.2593,0.2572,0.2636,0.2617,0.2623,0.2627,0.2629,0.2561,0.2526,0.2346,0.2354,0.2622,0.2621,0.262,0.2619,0,0.2161,0.2188,0.2195,0.2204,0.2247,0.2269,0.2302,0.2372,0.2411,0.2494,0.2532,0.2599,0.2632,0.2665,0.2684,0.2668,0.2742,0.2719,0.2667,0.2662,0.247,0.2445,0.2763,0.2763,0.2762,0.2762,0.2762,0,0.2137,0.2144,0.2182,0.2184,0.2211,0.2251,0.2298,0.2349,0.2427,0.2478,0.2548,0.2594,0.2661,0.2707,0.2711,0.272,0.2771,0.2682,0.2676,0.2478,0.2455,0.2689,0.268,0.2764,0.2763,0.2763,0.2763,0,0.2093,0.2116,0.2128,0.2174,0.2192,0.2212,0.2287,0.232,0.2408,0.2475,0.2502,0.2612,0.2677,0.2722,0.2777,0.275,0.2761,0.2746,0.2501,0.2465,0.2645,0.2638,0.269,0.2688,0.2687,0.2686,0.2685,0,0.2068,0.2068,0.2111,0.2119,0.2139,0.2181,0.2207,0.2299,0.2337,0.2475,0.2495,0.2598,0.264,0.2706,0.2681,0.2678,0.2745,0.2465,0.2393,0.2654,0.2642,0.2638,0.2633,0.2151,0.2146,0.2142,0.2138,0,0.2025,0.2043,0.2054,0.207,0.209,0.2117,0.2163,0.2189,0.2296,0.2351,0.2426,0.2474,0.2549,0.2455,0.2471,0.2439,0.2448,0.2377,0.2725,0.2211,0.215,0.2138,0.215,0.21,0.2104,0.2106,0.2108,0.211,0.1994,0.1989,0.2003,0.2008,0.2029,0.2029,0.2018,0.2071,0.211,0.2161,0.228,0.2275,0.2304,0.2213,0.2141,0.2081,0.2252,0.2136,0.2147,0.2163,0.2101,0.2042,0.1958,0.1961,0.1963,0.1966,0.1968,0,0.1939,0.1936,0.1938,0.1928,0.1903,0.1952,0.1962,0.1926,0.1916,0.1994,0.2032,0.1871,0.1809,0.1838,0.1677,0.1671,0.1635,0.1605,0.1532,0.1572,0.1608,0.1514,0.1217,0.1215,0.1212,0.121,0,0,0.191,0.1878,0.1867,0.1799,0.1793,0.173,0.1712,0.1678,0.1689,0.1654,0.1632,0.1765,0.1799,0.1499,0.1449,0.1303,0.1431,0.125,0.1855,0.1812,0.1844,0.1918,0.1821,0,0,0,0,0]},{"header":{"parameterUnit":"m.s-1","parameterCategory":2,"la1":30.2991,"la2":30.254,"lo1":-89.0895,"lo2":-89.0444,"dy":0.0017,"dx":0.0017,"nx":28,"ny":28,"refTime":"2025-02-08T09:00:00:Z","depth":"2","parameterNumber":3,"parameterNumberName":"V-component_of_CURRENTS"},"data":[0,0,0,0,0,0,0,0,0,0,0,0,0,0,0,0,0,0,0,0,0,0,0,0,0,0,0,0,0,0,0,0,0,0,0,0,0,0,0,0,0,0,0,0,0,0,0,0,0,0,0,0,0,0,0,0,0,0,0.0216,0.0216,0,0.0196,0.0195,0.0195,0.0178,0.0178,0.0178,0.0178,0.0145,0.0144,0.0144,0,0,0,0,0,0,0,0,0,0,0,0,0,0.0202,0.0202,0.0216,0.0216,0.0216,0.0196,0.0195,0.0195,0.0178,0.0178,0.0178,0.0178,0.0145,0.0144,0.0143,0,0,0,0,0,0,0,0,0,0,0,0,0,0.0197,0.0203,0.0216,0.0206,0.0205,0.0196,0.0195,0.0195,0.0178,0.0178,0.0178,0.0178,0.0146,0.0144,0.0143,0.0138,0,0,0.014,0.0139,0,0,0,0,0,0,0,0,0.0197,0.0197,0.0207,0.0206,0.0205,0.019,0.0178,0.0176,0.0178,0.0187,0.0178,0.0178,0.016,0.0157,0.0152,0.0137,0.0135,0.014,0.0139,0.0138,0.0138,0,0,0,0,0,0,0,0.0197,0.0197,0.0207,0.0207,0.0206,0.0189,0.0188,0.0178,0.0173,0.0186,0.0185,0.0185,0.0159,0.0154,0.0152,0.0135,0.014,0.0139,0.0138,0.0137,0.0119,0.0119,0,0,0,0,0,0,0.0204,0.0198,0.0207,0.0206,0.0202,0.019,0.0189,0.0194,0.0174,0.0171,0.0185,0.0184,0.0156,0.0153,0.015,0.0159,0.0138,0.0137,0.0137,0.0118,0.0119,0.0119,0,0,0,0,0,0,0.0204,0.0206,0.0208,0.0202,0.0201,0.019,0.0196,0.0194,0.0191,0.0173,0.017,0.0185,0.0156,0.0152,0.0147,0.0157,0.0137,0.0136,0.0118,0.0119,0.0119,0.0165,0,0,0,0,0,0,0.0204,0.0206,0.021,0.0203,0.0202,0.021,0.0196,0.0194,0.0191,0.019,0.0172,0.0168,0.0155,0.0149,0.0146,0.0155,0.0135,0.0118,0.0118,0.0119,0.0163,0.0167,0.017,0,0,0,0,0,0.0204,0.0214,0.021,0.0211,0.0209,0.021,0.0208,0.0198,0.0191,0.0194,0.0182,0.0169,0.0149,0.0148,0.0144,0.0153,0.0118,0.0118,0.0119,0.0162,0.0166,0.017,0,0,0,0,0,0,0.0208,0.0213,0.0209,0.0219,0.0217,0.0208,0.0209,0.0202,0.0194,0.0191,0.0173,0.0169,0.0166,0.0153,0.0152,0.0148,0.0131,0.013,0.0165,0.0169,0.0172,0.0186,0.0134,0,0,0,0,0,0.0212,0.0221,0.022,0.0227,0.0228,0.0218,0.0216,0.0211,0.0203,0.02,0.0188,0.0174,0.0165,0.0162,0.0149,0.0149,0.0131,0.0151,0.0155,0.0158,0.0166,0.0146,0.0148,0.0121,0.0121,0.0121,0,0,0.0215,0.0219,0.0223,0.0228,0.0225,0.0237,0.0217,0.0219,0.0227,0.0197,0.0203,0.0184,0.0166,0.0166,0.0164,0.0158,0.0154,0.0158,0.0161,0.0168,0.0146,0.0149,0.0152,0.0121,0.0121,0.0121,0,0,0.0231,0.0231,0.0246,0.0249,0.025,0.0248,0.0251,0.0245,0.024,0.024,0.0222,0.0212,0.0198,0.0189,0.0183,0.0197,0.0171,0.0191,0.0224,0.0204,0.0206,0.0208,0.0184,0.0183,0.0196,0.0196,0.0196,0,0.0233,0.0256,0.0249,0.0265,0.0275,0.0257,0.0278,0.0272,0.0263,0.0266,0.0248,0.023,0.021,0.0216,0.022,0.0206,0.0189,0.0212,0.0209,0.0211,0.0212,0.0187,0.0185,0.0198,0.0198,0.0198,0.0198,0,0.0265,0.028,0.029,0.031,0.0317,0.033,0.0327,0.0327,0.0317,0.0313,0.0309,0.0278,0.0271,0.0259,0.0244,0.0247,0.0229,0.0214,0.0202,0.0218,0.019,0.0187,0.0202,0.0201,0.02,0.0199,0,0,0.0279,0.0308,0.0311,0.0333,0.0344,0.0357,0.0368,0.0382,0.04,0.0373,0.0389,0.036,0.0341,0.0332,0.0306,0.0287,0.0273,0.0259,0.0257,0.0241,0.0227,0.0214,0.0209,0.0258,0.0258,0.0258,0.0203,0,0.0307,0.0353,0.0357,0.0401,0.0428,0.042,0.0441,0.0446,0.0443,0.0452,0.0412,0.0414,0.037,0.0367,0.0341,0.0295,0.027,0.0289,0.021,0.0207,0.0198,0.0208,0.0223,0.0176,0.0201,0.02,0.02,0,0.034,0.037,0.0419,0.0461,0.0472,0.0492,0.0527,0.0544,0.0547,0.0542,0.0528,0.0496,0.0468,0.0422,0.0348,0.0363,0.03,0.0255,0.0251,0.0224,0.0191,0.0164,0.017,0.0196,0.0196,0.0196,0.0197,0,0.0367,0.0413,0.0457,0.0472,0.0514,0.0532,0.0555,0.0573,0.0604,0.0601,0.0614,0.0568,0.0552,0.0469,0.0368,0.036,0.028,0.0254,0.0179,0.0177,0.0167,0.0165,0.0195,0.0195,0.0195,0.0195,0.0195,0,0.0402,0.0437,0.0474,0.05,0.0561,0.0574,0.0636,0.0646,0.0676,0.0727,0.0666,0.0682,0.0564,0.05,0.0395,0.0286,0.0297,0.019,0.0166,0.0183,0.0182,0.0182,0.0182,0.0193,0.0194,0.0194,0.0194,0,0.0427,0.0448,0.0505,0.0555,0.0576,0.0622,0.0694,0.0742,0.0755,0.0815,0.0816,0.0773,0.0696,0.0565,0.0436,0.0333,0.022,0.0174,0.02,0.018,0.0121,0.0123,0.0088,0.0087,0.0086,0.0086,0.0085,0,0.0445,0.0476,0.0547,0.0588,0.0614,0.0683,0.0738,0.0779,0.0836,0.0877,0.091,0.0851,0.0825,0.0622,0.0438,0.0253,0.0221,0.0132,0.0115,0.0131,0.0111,0.0115,0.0118,0.0114,0.0113,0.0113,0.0113,0,0.0483,0.0503,0.0551,0.0637,0.0699,0.0782,0.0859,0.0915,0.0975,0.1019,0.1063,0.1042,0.0861,0.0685,0.0428,0.0298,0.0163,0.0122,0.0137,0.0142,0.0152,0.0134,0.0136,0.0111,0.0112,0.0112,0.0112,0.0112,0.0508,0.0547,0.0608,0.0691,0.0768,0.0867,0.0939,0.1024,0.1118,0.119,0.1173,0.114,0.094,0.0615,0.0396,0.0157,0.0169,0.0072,0.0074,0.0076,0.0093,0.0101,0.0054,0.0053,0.0053,0.0053,0.0053,0,0.054,0.0586,0.0661,0.0757,0.0845,0.0884,0.1013,0.1085,0.1197,0.1255,0.1288,0.1085,0.0885,0.0642,0.0299,0.0098,0.008,0.0019,0.0045,0.0048,0.0051,0.0067,0.002,0.0019,0.0019,0.0018,0,0,0.0558,0.0625,0.0663,0.0799,0.0873,0.0993,0.107,0.1174,0.1242,0.1298,0.1279,0.1242,0.0952,0.0696,0.0424,0.0223,0.0179,0.0176,0.0225,0.0292,0.0297,0.0104,0.0135,0,0,0,0,0]}],[{"header":{"parameterUnit":"m.s-1","parameterCategory":2,"la1":30.2991,"la2":30.254,"lo1":-89.0895,"lo2":-89.0444,"dy":0.0017,"dx":0.0017,"nx":28,"ny":28,"refTime":"2025-02-08T09:00:00:Z","depth":"4","parameterNumber":2,"parameterNumberName":"U-component_of_CURRENTS"},"data":[0,0,0,0,0,0,0,0,0,0,0,0,0,0,0,0,0,0,0,0,0,0,0,0,0,0,0,0,0,0,0,0,0,0,0,0,0,0,0,0,0,0,0,0,0,0,0,0,0,0,0,0,0,0,0,0,0,0,0.1335,0.1336,0,0.1377,0.1378,0.1378,0.1418,0.1418,0.1419,0.1419,0.1471,0.1472,0.1473,0,0,0,0,0,0,0,0,0,0,0,0,0,0.13,0.13,0.1335,0.1336,0.1337,0.1377,0.1378,0.1378,0.1417,0.1418,0.1419,0.142,0.1471,0.1472,0.1473,0,0,0,0,0,0,0,0,0,0,0,0,0,0.1325,0.1301,0.1335,0.1362,0.1365,0.1377,0.1378,0.1378,0.1417,0.1418,0.1419,0.142,0.147,0.1472,0.1473,0.1462,0,0,0.1476,0.1477,0,0,0,0,0,0,0,0,0.1323,0.1326,0.1357,0.136,0.1364,0.1394,0.1384,0.1407,0.1417,0.1396,0.1419,0.142,0.1446,0.145,0.1453,0.1464,0.1466,0.1477,0.1477,0.1478,0.1478,0,0,0,0,0,0,0,0.1322,0.1324,0.1351,0.1358,0.1362,0.1376,0.138,0.1389,0.1415,0.1398,0.1401,0.1408,0.1448,0.1452,0.1455,0.1467,0.1476,0.1478,0.1478,0.1479,0.1566,0.1567,0,0,0,0,0,0,0.1317,0.1323,0.1349,0.1352,0.1347,0.1376,0.138,0.1382,0.1415,0.1421,0.1407,0.1409,0.145,0.1454,0.1457,0.1527,0.1478,0.1479,0.148,0.1564,0.1566,0.1568,0,0,0,0,0,0,0.1316,0.1319,0.1348,0.134,0.1344,0.1375,0.1377,0.1383,0.1418,0.1421,0.1428,0.1441,0.1451,0.1455,0.1495,0.1526,0.1479,0.148,0.1562,0.1565,0.1567,0.1615,0,0,0,0,0,0,0.1315,0.1318,0.1334,0.1339,0.1345,0.1374,0.1377,0.1383,0.1419,0.1424,0.1452,0.1456,0.1452,0.1493,0.1496,0.1527,0.1481,0.156,0.1563,0.1566,0.1611,0.1618,0.1624,0,0,0,0,0,0.1313,0.1325,0.1335,0.1339,0.136,0.1375,0.138,0.1403,0.1421,0.1439,0.1463,0.1456,0.1515,0.1496,0.1499,0.153,0.1559,0.1562,0.1566,0.1608,0.1617,0.1624,0,0,0,0,0,0,0.132,0.133,0.1341,0.1357,0.1375,0.1383,0.1407,0.1421,0.1454,0.147,0.1473,0.1478,0.1526,0.1523,0.1502,0.1566,0.1537,0.1541,0.1568,0.1576,0.1583,0.1583,0.1482,0,0,0,0,0,0.1328,0.1341,0.1352,0.137,0.1381,0.1401,0.1417,0.1433,0.1454,0.1471,0.149,0.1514,0.1537,0.1554,0.1569,0.1601,0.1601,0.1626,0.1633,0.1638,0.1641,0.1677,0.1687,0.1579,0.1579,0.1579,0,0,0.1336,0.1345,0.1354,0.1373,0.1392,0.141,0.1414,0.1447,0.1471,0.1471,0.1522,0.154,0.1551,0.159,0.1611,0.1595,0.1668,0.1643,0.1647,0.1647,0.1682,0.1692,0.1701,0.1582,0.1581,0.1581,0,0,0.1349,0.1369,0.1383,0.1399,0.1431,0.1441,0.1457,0.1483,0.1509,0.155,0.1561,0.1601,0.1633,0.1647,0.1657,0.1711,0.1704,0.1723,0.1757,0.1792,0.18,0.1808,0.1815,0.1823,0.1726,0.1726,0.1726,0,0.1365,0.1375,0.1392,0.1409,0.1428,0.1458,0.1478,0.1504,0.1543,0.1571,0.1578,0.1648,0.1658,0.1703,0.1724,0.1726,0.1738,0.1722,0.18,0.1807,0.1815,0.182,0.1828,0.1729,0.1729,0.1728,0.1728,0,0.1373,0.1398,0.1411,0.1439,0.1463,0.1489,0.1519,0.1559,0.1597,0.1623,0.1691,0.1709,0.1752,0.1764,0.176,0.1821,0.1809,0.1804,0.1776,0.1828,0.183,0.1838,0.1733,0.1732,0.1731,0.173,0,0,0.1365,0.1408,0.1417,0.1437,0.1482,0.1499,0.1551,0.1599,0.1644,0.1694,0.1749,0.1795,0.1821,0.1834,0.1843,0.187,0.1927,0.1865,0.1865,0.1865,0.1994,0.1859,0.1853,0.1942,0.1944,0.1946,0.1972,0,0.1371,0.1401,0.1425,0.1468,0.1485,0.1533,0.1576,0.163,0.1683,0.1745,0.1788,0.1845,0.1843,0.1875,0.1906,0.1927,0.1951,0.1919,0.1948,0.1949,0.1817,0.1859,0.1951,0.1978,0.198,0.1981,0.1982,0,0.1364,0.1387,0.1424,0.148,0.1495,0.1532,0.1611,0.1655,0.1746,0.1792,0.1862,0.1898,0.196,0.1946,0.2012,0.1997,0.2003,0.2007,0.2009,0.1869,0.1827,0.1917,0.1995,0.1994,0.1993,0.1992,0.1992,0,0.1329,0.1385,0.1415,0.1434,0.1503,0.1544,0.1592,0.1679,0.1727,0.1832,0.188,0.1958,0.2006,0.2039,0.206,0.2049,0.2115,0.2096,0.1975,0.1965,0.2057,0.2049,0.2136,0.2136,0.2136,0.2136,0.2136,0,0.1303,0.1334,0.1409,0.1424,0.1478,0.1535,0.1607,0.167,0.1764,0.1821,0.1908,0.1953,0.2037,0.2081,0.2086,0.2052,0.214,0.1982,0.1967,0.2075,0.2069,0.2062,0.2053,0.2137,0.2137,0.2137,0.2137,0,0.1253,0.1302,0.1344,0.1428,0.1461,0.1503,0.161,0.1653,0.1757,0.1831,0.1868,0.1976,0.2028,0.2079,0.2131,0.2067,0.2056,0.202,0.2129,0.2119,0.1873,0.1866,0.1877,0.1873,0.1869,0.1866,0.1863,0,0.1224,0.1242,0.1339,0.1368,0.1412,0.1486,0.153,0.1641,0.1682,0.1822,0.1839,0.1938,0.1992,0.195,0.202,0.2012,0.1988,0.1959,0.1912,0.1864,0.1849,0.1849,0.1847,0.1857,0.1856,0.1855,0.1854,0,0.1171,0.1222,0.1258,0.1317,0.1371,0.1419,0.149,0.1508,0.1626,0.1737,0.1762,0.1784,0.1835,0.1864,0.1874,0.1867,0.1965,0.1919,0.1926,0.1882,0.184,0.1829,0.1832,0.1841,0.1843,0.1844,0.1845,0,0.1141,0.1153,0.1208,0.1249,0.131,0.1321,0.1373,0.1408,0.1462,0.1604,0.1613,0.1714,0.1818,0.179,0.1803,0.1783,0.1747,0.1673,0.1692,0.1707,0.1639,0.156,0.1463,0,0,0,0,0,0.1099,0.1097,0.1129,0.1158,0.1212,0.1248,0.1327,0.1378,0.1489,0.146,0.1529,0.1564,0.1582,0.164,0.1583,0.1729,0.1758,0.1654,0.1683,0.1768,0.1783,0.1718,0,0,0,0,0,0,0.1067,0.1096,0.1097,0.1073,0.1077,0.1119,0.1166,0.1242,0.1229,0.1351,0.137,0.1461,0.1507,0.1598,0.1554,0.1568,0.1549,0.1721,0.1716,0.176,0.1773,0.1786,0.1724,0,0,0,0,0]},{"header":{"parameterUnit":"m.s-1","parameterCategory":2,"la1":30.2991,"la2":30.254,"lo1":-89.0895,"lo2":-89.0444,"dy":0.0017,"dx":0.0017,"nx":28,"ny":28,"refTime":"2025-02-08T09:00:00:Z","depth":"4","parameterNumber":3,"parameterNumberName":"V-component_of_CURRENTS"},"data":[0,0,0,0,0,0,0,0,0,0,0,0,0,0,0,0,0,0,0,0,0,0,0,0,0,0,0,0,0,0,0,0,0,0,0,0,0,0,0,0,0,0,0,0,0,0,0,0,0,0,0,0,0,0,0,0,0,0,0.0175,0.0175,0,0.0162,0.0162,0.0162,0.0154,0.0154,0.0154,0.0154,0.0132,0.0132,0.0131,0,0,0,0,0,0,0,0,0,0,0,0,0,0.0166,0.0166,0.0176,0.0175,0.0175,0.0162,0.0162,0.0162,0.0154,0.0154,0.0154,0.0154,0.0133,0.0132,0.0131,0,0,0,0,0,0,0,0,0,0,0,0,0,0.0163,0.0167,0.0176,0.017,0.017,0.0162,0.0162,0.0162,0.0154,0.0154,0.0154,0.0154,0.0133,0.0132,0.0131,0.0125,0,0,0.0128,0.0128,0,0,0,0,0,0,0,0,0.0163,0.0163,0.0171,0.0171,0.017,0.016,0.0151,0.0149,0.0154,0.0159,0.0154,0.0154,0.0141,0.014,0.0136,0.0124,0.0123,0.0128,0.0128,0.0127,0.0127,0,0,0,0,0,0,0,0.0163,0.0163,0.017,0.0171,0.017,0.0159,0.0159,0.015,0.015,0.0159,0.0158,0.0158,0.0141,0.0137,0.0136,0.0122,0.0128,0.0127,0.0127,0.0126,0.0112,0.0112,0,0,0,0,0,0,0.0168,0.0164,0.017,0.0169,0.0167,0.0159,0.0159,0.0163,0.015,0.0148,0.0158,0.0158,0.0139,0.0137,0.0135,0.0143,0.0127,0.0126,0.0126,0.0112,0.0112,0.0112,0,0,0,0,0,0,0.0168,0.0168,0.0171,0.0166,0.0166,0.016,0.0164,0.0163,0.0163,0.0149,0.0147,0.016,0.0139,0.0136,0.0134,0.0142,0.0126,0.0125,0.0111,0.0112,0.0112,0.0149,0,0,0,0,0,0,0.0167,0.0169,0.0173,0.0167,0.0166,0.0172,0.0164,0.0162,0.0163,0.0162,0.0151,0.0148,0.0139,0.0136,0.0133,0.014,0.0124,0.0111,0.0112,0.0112,0.0148,0.0151,0.0153,0,0,0,0,0,0.0167,0.0175,0.0174,0.0174,0.0173,0.0172,0.0171,0.0166,0.0163,0.0166,0.0159,0.0149,0.0136,0.0135,0.0132,0.0139,0.0111,0.0112,0.0112,0.0146,0.015,0.0153,0,0,0,0,0,0,0.0172,0.0175,0.0173,0.0181,0.0179,0.0171,0.0174,0.0169,0.0166,0.0166,0.0152,0.015,0.015,0.0138,0.0138,0.0135,0.0121,0.0121,0.0148,0.0151,0.0154,0.0164,0.0124,0,0,0,0,0,0.0176,0.0183,0.0181,0.0187,0.0188,0.0181,0.018,0.0177,0.0173,0.0171,0.0164,0.0154,0.0148,0.0146,0.0136,0.0136,0.0119,0.0137,0.014,0.0143,0.0148,0.0127,0.0128,0.0113,0.0113,0.0113,0,0,0.0179,0.0182,0.0185,0.0189,0.0187,0.0195,0.0181,0.0183,0.019,0.0169,0.0176,0.0163,0.0149,0.015,0.0148,0.0143,0.0137,0.0143,0.0145,0.015,0.0128,0.0129,0.013,0.0113,0.0113,0.0113,0,0,0.0191,0.0193,0.0203,0.0206,0.0207,0.0205,0.0208,0.0204,0.0202,0.0204,0.0192,0.0184,0.0175,0.0168,0.0162,0.0173,0.0151,0.017,0.0194,0.0173,0.0174,0.0175,0.0154,0.0153,0.0173,0.0173,0.0173,0,0.0194,0.021,0.0205,0.0217,0.0225,0.0213,0.0228,0.0225,0.022,0.0223,0.0212,0.0199,0.0184,0.0187,0.0191,0.018,0.0165,0.0185,0.0177,0.0178,0.0178,0.0156,0.0154,0.0174,0.0174,0.0174,0.0174,0,0.0215,0.0229,0.0236,0.0251,0.0256,0.0267,0.0265,0.0267,0.0263,0.026,0.0258,0.0235,0.0229,0.022,0.021,0.0208,0.0195,0.0182,0.0171,0.0182,0.0158,0.0155,0.0177,0.0176,0.0176,0.0175,0,0,0.0223,0.0247,0.0251,0.0268,0.0277,0.0287,0.0297,0.0307,0.0322,0.0304,0.0315,0.0295,0.0281,0.0274,0.0254,0.0236,0.022,0.0215,0.0213,0.0198,0.0175,0.016,0.0155,0.0207,0.0207,0.0207,0.0157,0,0.0244,0.0277,0.0282,0.0317,0.0336,0.0334,0.035,0.0355,0.0354,0.036,0.033,0.0334,0.0302,0.0302,0.0277,0.0238,0.0215,0.0235,0.0164,0.0162,0.015,0.0152,0.0206,0.0155,0.0154,0.0154,0.0153,0,0.0264,0.0287,0.0325,0.0361,0.0369,0.0388,0.0416,0.043,0.0431,0.0428,0.0417,0.0394,0.037,0.0337,0.0271,0.0286,0.0236,0.0198,0.0194,0.0167,0.0141,0.0141,0.0148,0.0148,0.0149,0.0149,0.0149,0,0.0279,0.0318,0.0352,0.0364,0.04,0.0418,0.0439,0.0454,0.0477,0.0476,0.0484,0.0446,0.0433,0.0364,0.0282,0.0279,0.0201,0.0184,0.012,0.0118,0.0131,0.013,0.0132,0.0132,0.0133,0.0133,0.0133,0,0.03,0.0329,0.0366,0.0386,0.0436,0.045,0.0501,0.0511,0.0534,0.0569,0.0526,0.053,0.0439,0.0382,0.0298,0.0203,0.0211,0.0126,0.0105,0.0147,0.0149,0.0128,0.0129,0.0131,0.0131,0.0132,0.0132,0,0.0311,0.0333,0.0379,0.0425,0.0446,0.0484,0.0548,0.0584,0.0597,0.0636,0.0638,0.0598,0.0526,0.0423,0.0313,0.0233,0.0137,0.0098,0.0153,0.0136,0.0062,0.0065,0.0024,0.0023,0.0023,0.0022,0.0021,0,0.0319,0.0344,0.0409,0.0445,0.0471,0.0531,0.0577,0.0614,0.0654,0.0678,0.0695,0.0641,0.0597,0.043,0.0317,0.0152,0.0123,0.0066,0.0059,0.0067,0.0051,0.0055,0.0059,0.002,0.002,0.002,0.0019,0,0.0337,0.036,0.04,0.0474,0.053,0.0597,0.0661,0.0692,0.0737,0.0748,0.074,0.0655,0.0572,0.0437,0.0309,0.0189,0.0099,0.0057,0.0058,0.0051,0.0062,0.0048,0.0052,0.0017,0.0017,0.0017,0.0018,0,0.035,0.0379,0.0432,0.05,0.0572,0.0641,0.0676,0.0721,0.0759,0.0777,0.0776,0.0682,0.0635,0.0457,0.0339,0.0218,0.0182,0.013,0.0126,0.0128,0.0167,0.0196,0.0177,0,0,0,0,0,0.0361,0.0395,0.0455,0.0528,0.0601,0.0646,0.0723,0.0753,0.079,0.079,0.0785,0.0706,0.0537,0.0468,0.0345,0.0312,0.0154,0.0161,0.009,0.0001,0.0005,0.0031,0,0,0,0,0,0,0.0367,0.042,0.0451,0.054,0.0593,0.0677,0.0728,0.0756,0.0756,0.0773,0.0689,0.0657,0.0497,0.0606,0.0337,0.0302,0.0235,0.0089,0.0086,-0.0,0.0003,0.0005,0.0033,0,0,0,0,0]}]]